CUTE-1 (CO-55) 1 27844U 03031E 26074.53517079 .00000339 00000+0 16558-3 0 9990 2 27844 98.6777 84.2614 0010761 97.2996 262.9407 14.24271252178346 CUBESAT XI-IV (CO-57) 1 27848U 03031J 26074.54720573 .00000279 00000+0 14156-3 0 9995 2 27848 98.6807 84.0611 0010540 113.4269 246.8019 14.23565580178055 CUBESAT XI-V 1 28895U 05043F 26074.49247191 .00001781 00000+0 28935-3 0 9996 2 28895 98.2840 228.2266 0015033 140.0240 220.2076 14.72346847 87961 CUTE-1.7+APD II (CO-65) 1 32785U 08021C 26074.61744551 .00006455 00000+0 41810-3 0 9994 2 32785 97.8208 54.1954 0008942 359.2276 0.8937 15.08464532971086 CANX-2 1 32790U 08021H 26074.42561646 .00005846 00000+0 41751-3 0 9998 2 32790 97.8553 52.4741 0010732 9.1591 350.9828 15.04861312970700 SEEDS II (CO-66) 1 32791U 08021J 26074.48299987 .00017206 00000+0 60641-3 0 9993 2 32791 97.7514 68.1553 0000558 316.1647 43.9548 15.29356449972954 SWISSCUBE 1 35932U 09051B 26074.29383809 .00001244 00000+0 25645-3 0 9993 2 35932 98.4097 340.5359 0007443 136.4334 223.7456 14.62275985875437 BEESAT-1 1 35933U 09051C 26074.59766977 .00000939 00000+0 19900-3 0 9995 2 35933 98.4025 340.6735 0005701 146.0646 214.0920 14.61547257875517 ITUPSAT1 1 35935U 09051E 26074.57554055 .00000858 00000+0 18773-3 0 9994 2 35935 98.4111 339.9399 0007665 159.8254 200.3250 14.60280983875074 TISAT 1 1 36799U 10035E 26073.80028224 .00030810 00000+0 11309-2 0 9994 2 36799 98.0644 12.3029 0002021 152.2134 207.9212 15.27894692853278 AEROCUBE 4.5A 1 38767U 12048K 26074.16359664 .00105754 00000+0 10912-2 0 9991 2 38767 64.6386 0.9891 0039919 210.2375 149.6469 15.63218123357842 STRAND-1 1 39090U 13009E 26074.48248838 .00000371 00000+0 13911-3 0 9996 2 39090 98.3893 257.0303 0009324 145.3997 214.7798 14.37100277683602 BRITE-AUSTRIA 1 39091U 13009F 26074.45551414 .00000238 00000+0 95681-4 0 9998 2 39091 98.3961 256.2188 0010706 154.4460 205.7258 14.36499870683591 NEE-01 PEGASO 1 39151U 13018B 26074.32945336 .00004181 00000+0 40583-3 0 9992 2 39151 98.1053 215.4909 0013922 112.6795 247.5897 14.93140271696695 POPACS 2 1 39269U 13055E 26074.49457690 .00027219 00000+0 47012-3 0 9993 2 39269 80.9890 251.2208 0429560 134.3138 229.4158 14.88176692649264 POPACS 3 1 39270U 13055F 26074.46004390 .00015470 00000+0 37358-3 0 9995 2 39270 81.0050 330.6820 0559180 355.1977 4.3970 14.54155002624927 ZACUBE-1 (TSHEPISOSAT) 1 39417U 13066B 26074.46565299 .00004642 00000+0 36728-3 0 9999 2 39417 97.8155 36.3176 0043205 200.7842 159.1627 15.00386891666677 WNISAT-1 1 39423U 13066H 26074.67089699 .00001500 00000+0 28073-3 0 9998 2 39423 97.7050 230.5435 0163977 166.0308 194.5511 14.57896298653100 TRITON-1 1 39427U 13066M 26074.61590338 .00002971 00000+0 36207-3 0 9994 2 39427 97.8289 346.5693 0090601 178.3455 181.8075 14.81232805660236 GOMX-1 1 39430U 13066Q 26074.61407845 .00002725 00000+0 41510-3 0 9998 2 39430 97.6570 280.9500 0129882 18.5950 341.9938 14.69125050656172 CUBEBUG-2 (LO-74) 1 39440U 13066AA 26074.59542138 .00005652 00000+0 53146-3 0 9991 2 39440 97.8814 23.2773 0057869 339.4708 20.4186 14.93032954663020 NEE-02 KRYSAOR 1 39441U 13066AB 26074.57215488 .00003311 00000+0 36822-3 0 9997 2 39441 97.8819 14.5196 0067233 18.0382 342.3197 14.86206468662293 FUNCUBE-1 (AO-73) 1 39444U 13066AE 26074.14862953 .00009801 00000+0 63026-3 0 9994 2 39444 97.8183 43.7800 0037879 160.7434 199.5236 15.08016483665483 UWE-3 1 39446U 13066AG 26074.41422755 .00005848 00000+0 51154-3 0 9994 2 39446 97.8597 29.9677 0047826 272.4168 87.1578 14.96251217663559 BRITE-CA1 (TORONTO) 1 40020U 14033L 26074.33721130 .00001446 00000+0 22531-3 0 9996 2 40020 97.9576 205.0885 0078166 216.6064 142.9788 14.72482267628404 DUCHIFAT-1 1 40021U 14033M 26074.57381311 .00053924 00000+0 93824-3 0 9997 2 40021 98.0628 121.6983 0005512 68.0551 292.1285 15.50600758641186 NANOSATC-BR1 1 40024U 14033Q 26074.54810035 .00015345 00000+0 55779-3 0 9999 2 40024 98.0837 98.8170 0005085 134.6998 225.4654 15.28367875639668 QB50P1 1 40025U 14033R 26074.51614725 .00008402 00000+0 43270-3 0 9994 2 40025 98.1003 79.1932 0009043 174.1991 185.9347 15.16652450638822 QB50P2 1 40032U 14033Y 26074.54654021 .00007468 00000+0 41737-3 0 9995 2 40032 98.0729 65.7069 0009158 125.9152 234.2929 15.13788381638493 PERSEUS-M2 1 40037U 14033AD 26074.58312480 .00001655 00000+0 15610-3 0 9997 2 40037 97.9859 23.2944 0010659 248.1093 111.8994 14.95183894636791 PERSEUS-M1 1 40039U 14033AF 26074.42907077 .00002163 00000+0 20173-3 0 9999 2 40039 97.9552 17.0945 0010351 246.3745 113.6389 14.95280212636620 POLYITAN-1 1 40042U 14033AJ 26074.56156186 .00016855 00000+0 58481-3 0 9991 2 40042 98.1045 92.1738 0009629 112.0173 248.2090 15.29837372639268 TIGRISAT 1 40043U 14033AK 26074.65530326 .00001958 00000+0 23223-3 0 9998 2 40043 97.7678 226.9038 0049950 23.0535 337.2905 14.84759782631747 AEROCUBE 6A 1 40045U 14033AM 26074.41222419 .00008137 00000+0 70263-3 0 9997 2 40045 97.7133 242.4767 0038207 331.1069 28.8037 14.96938666632580 AEROCUBE 6B 1 40046U 14033AN 26074.43686029 .00006926 00000+0 57821-3 0 9990 2 40046 97.7109 242.1064 0037440 322.0884 37.7703 14.98324279632718 CANX-4 1 40055U 14034C 26074.58865567 .00001012 00000+0 13776-3 0 9995 2 40055 98.3268 306.4026 0011947 316.6562 43.3708 14.81077048630671 CANX-5 1 40056U 14034D 26074.58816206 .00001019 00000+0 13851-3 0 9993 2 40056 98.3272 306.4400 0011953 316.8569 43.1704 14.81093801621487 UKUBE-1 1 40074U 14037F 26074.57395440 .00009089 00000+0 53442-3 0 9992 2 40074 98.4237 68.1352 0003340 102.2789 257.8813 15.11934158634403 BRITE-PL2 (HEWELIUSZ) 1 40119U 14049B 26074.56617356 .00002084 00000+0 19955-3 0 9996 2 40119 97.8981 185.9304 0015077 63.3457 296.9305 14.94213114627466 AEROCUBE 5C 1 40965U 15058B 26074.61488176 .00003253 00000+0 29479-3 0 9999 2 40965 64.7678 193.5627 0130354 100.1325 261.4521 14.90909026351702 AEROCUBE 7 1 40966U 15058C 26074.53740530 .00004255 00000+0 35023-3 0 9991 2 40966 64.7634 177.9727 0120276 99.1560 262.3184 14.94964031351955 FOX-1A (AO-85) 1 40967U 15058D 26074.63151744 .00003334 00000+0 30689-3 0 9996 2 40967 64.7753 209.5937 0128727 93.5346 268.0499 14.90407607 99624 SINOD-D 1 1 40968U 15058E 26074.52612250 .00004584 00000+0 37730-3 0 9991 2 40968 64.7756 192.0407 0117099 90.7572 270.6961 14.95124135102654 SNAP-3 ALICE 1 40970U 15058G 26074.40422856 .00077446 00000+0 16073-2 0 9995 2 40970 64.7555 64.0516 0036837 66.5519 293.9486 15.44514364102332 LMRST-SAT 1 40971U 15058H 26074.49629426 .00003353 00000+0 30996-3 0 9994 2 40971 64.7757 206.1777 0130816 95.5722 266.0325 14.90039237 99592 SNAP-3 EDDIE 1 40972U 15058J 26074.33247243 .00076992 00000+0 15406-2 0 9998 2 40972 64.7478 55.6500 0037844 71.9053 288.6202 15.45537695104454 PROPCUBE 3 1 40973U 15058K 26074.55739695 .00003835 00000+0 32666-3 0 9994 2 40973 64.7694 184.9158 0123262 97.2461 264.2683 14.93588229100814 BISONSAT 1 40974U 15058L 26074.50424870 .00009868 00000+0 51179-3 0 9998 2 40974 64.7599 116.0293 0078654 88.1496 272.8634 15.13940468101425 SNAP-3 JIMI 1 40975U 15058M 26074.62730913 .00005144 00000+0 36745-3 0 9995 2 40975 64.7661 155.5481 0105237 93.9495 267.3661 15.01220839100174 PROPCUBE 1 (FLORA) 1 40976U 15058N 26074.56721198 .00003249 00000+0 31231-3 0 9993 2 40976 64.7740 225.2647 0129851 97.8058 263.7818 14.88688739102322 SINOD-D 3 1 40977U 15058P 26074.50488879 .00004666 00000+0 40189-3 0 9990 2 40977 64.7722 208.1885 0118271 95.7332 265.7280 14.93280459100767 HORYU-4 1 41340U 16012D 26073.57392746 .00121667 00000+0 12267-2 0 9995 2 41340 30.9920 33.8282 0003998 201.4323 158.6163 15.63882335555871 RAVAN 1 41849U 16067B 26074.59650314 .00037355 00000+0 74694-3 0 9993 2 41849 98.0038 313.9244 0005483 345.1295 14.9791 15.46689301513194 CELTEE 1 1 41850U 16067C 26074.54659985 .00006255 00000+0 30533-3 0 9992 2 41850 98.0817 294.7206 0001349 130.9564 229.1786 15.18679399511660 OPTICUBE 04 1 41851U 16067D 26074.47715518 .00002180 00000+0 14111-3 0 9997 2 41851 98.0806 281.8362 0017075 76.0149 284.2976 15.09224315511039 AEROCUBE 8D 1 41852U 16067E 26074.57560573 .00008228 00000+0 35320-3 0 9992 2 41852 98.0829 297.6481 0004862 96.6790 263.4999 15.22991305511817 AEROCUBE 8C 1 41853U 16067F 26074.54941350 .00008665 00000+0 36922-3 0 9990 2 41853 98.0701 294.9712 0006114 36.5612 323.6039 15.23220093511805 CORVUS BC2 1 42846U 17042X 26074.44294539 .00003471 00000+0 24390-3 0 9992 2 42846 97.3956 239.5307 0014843 75.6197 284.6677 15.05656524472955 CORVUS BC1 1 42847U 17042Y 26074.44868202 .00003658 00000+0 25549-3 0 9991 2 42847 97.3990 240.2860 0013360 54.8967 305.3511 15.05865935472983 MAKERSAT 0 1 43016U 17073D 26074.20338013 .00023403 00000+0 70292-3 0 9995 2 43016 97.4785 316.2018 0114723 246.0562 112.8629 15.28078906452095 SIRION PATHFINDER-2 1 43759U 18099B 26074.60155234 .00005218 00000+0 29396-3 0 9997 2 43759 97.4386 125.8888 0007275 261.3820 98.6587 15.13617717398462 CORVUS BC4 1 43767U 18099K 26074.35199328 .00005491 00000+0 32613-3 0 9999 2 43767 97.4197 120.0742 0007506 334.9231 25.1634 15.11679089398227 M2 PATHFINDER 1 45727U 20037E 26074.46666933 .00003635 00000+0 26567-3 0 9994 2 45727 97.8173 264.6514 0012821 108.6808 251.5811 15.04227372311400 NETSAT-4 1 46504U 20068U 26074.50183286 .00016266 00000+0 40110-3 0 9996 2 46504 97.8639 75.4393 0003773 309.5483 50.5428 15.40634566301330 NETSAT-3 1 46505U 20068V 26074.56227423 .00017051 00000+0 43888-3 0 9993 2 46505 97.8677 73.8533 0004074 334.6560 25.4483 15.39312583301265 NETSAT-1 1 46506U 20068W 26074.49760689 .00014045 00000+0 45348-3 0 9995 2 46506 97.8746 69.1589 0004888 1.2267 358.8984 15.32237884300942 NETSAT-2 1 46507U 20068X 26074.51546679 .00020260 00000+0 47842-3 0 9997 2 46507 97.8655 75.0708 0003399 4.5515 355.5761 15.41897080301284 GREENCUBE (IO-117) 1 53109U 22080E 26074.64681150 -.00000003 00000+0 00000+0 0 9992 2 53109 70.1596 330.7852 0008914 311.0797 48.9092 6.42583143 86053 SITRO-AIS 5 (KATYS) 1 57176U 23091L 26074.64266478 .00012811 00000+0 48106-3 0 9997 2 57176 97.5175 137.7603 0013188 76.6500 283.6208 15.27250832150059 SITRO-AIS 6 (CHIRKIN) 1 57192U 23091AC 26074.62144990 .00006231 00000+0 25572-3 0 9998 2 57192 97.5180 137.3106 0014077 77.8890 282.3923 15.24505397150023 SITRO-AIS 8 (ANOKHIN) 1 57193U 23091AD 26074.61586521 .00014319 00000+0 50103-3 0 9992 2 57193 97.5167 138.9703 0012295 74.3709 285.8887 15.29556304150138 SITRO-AIS 7 (FARTUSHNIY) 1 57194U 23091AE 26074.60697317 .00005968 00000+0 24696-3 0 9996 2 57194 97.5179 137.1649 0013977 78.7786 281.5022 15.24248351150019 SITRO-AIS 10 (BURDAEV) 1 57199U 23091AK 26074.62006248 .00017067 00000+0 50362-3 0 9992 2 57199 97.5181 143.1426 0007740 57.0960 303.1027 15.35028615150390 SITRO-AIS 9 (SHCHUKIN) 1 57201U 23091AM 26074.61974353 .00018583 00000+0 55465-3 0 9999 2 57201 97.5179 142.9381 0007968 56.6265 303.5739 15.34648103150385 SITRO-AIS 12 (SMIRENNIY) 1 57204U 23091AQ 26074.62710520 .00016585 00000+0 49163-3 0 9995 2 57204 97.5191 143.3574 0007531 52.1012 308.0911 15.34894362150403 SITRO-AIS 11 (SHEFFER) 1 57208U 23091AU 26074.59895303 .00020004 00000+0 58567-3 0 9997 2 57208 97.5189 143.5217 0007409 51.9625 308.2285 15.35245247150411 SITRO-AIS 25 1 59066U 24039R 26074.61927023 .00003983 00000+0 31774-3 0 9990 2 59066 95.3939 170.8204 0144767 295.3954 63.2344 14.92685182110767 SITRO-AIS 26 1 59067U 24039S 26074.54136375 .00004563 00000+0 36507-3 0 9999 2 59067 95.3937 170.6828 0145083 296.1425 62.4936 14.92496378110743 SITRO-AIS 27 1 59068U 24039T 26074.60419160 .00004222 00000+0 33521-3 0 9998 2 59068 95.3937 170.9557 0144205 294.7132 63.9140 14.92892247110771 SITRO-AIS 28 1 59071U 24039U 26074.58379689 .00003541 00000+0 28138-3 0 9991 2 59071 95.3937 170.9842 0144227 294.6290 63.9969 14.92925355110776 GRBBETA 1 60237U 24128C 26074.55069746 .00004781 00000+0 33279-3 0 9992 2 60237 61.9901 184.5995 0050812 115.1579 245.4796 15.05869669 92162 OOV-CUBE (TUBSAT-30) 1 60240U 24128F 26074.62003842 .00002919 00000+0 22898-3 0 9995 2 60240 61.9953 191.7222 0054021 113.5357 247.1422 15.02299472 92057 ROBUSTA-3A (MEDITERRAN*) 1 60243U 24128J 26074.55761551 .00009912 00000+0 59753-3 0 9998 2 60243 61.9869 178.9827 0051160 109.3724 251.2912 15.10217150 92272 LASARSAT 1 62391U 24247Q 26073.28980069 .00038386 00000+0 93019-3 0 9992 2 62391 44.9755 73.1375 0002158 85.8847 274.2287 15.40492839 68651 CROCUBE 1 62394U 24247T 26073.70485875 .00049321 00000+0 11439-2 0 9993 2 62394 44.9730 69.3943 0001729 76.3761 283.7320 15.41712327 68738